EW5171 Weather Reports


time (UTC)temp
C
wind
direction
speed
KPH
gust
KPH
rain 1hr
cm
rain 24hr
cm
rain mn
cm
humidity
%
barometer
mb
20260510143005 12 90 0.0 8.0 0.00 0.00 0.00 57 1011.9
20260510142505 12 246 3.2 8.0 0.00 0.00 0.00 56 1011.9
20260510142004 12 339 1.6 8.0 0.00 0.00 0.00 56 1012.0
20260510141504 12 209 3.2 8.0 0.00 0.00 0.00 57 1012.1
20260510141004 12 286 1.6 19.3 0.00 0.00 0.00 58 1012.1
20260510140503 12 293 6.4 19.3 0.00 0.00 0.00 57 1012.1
20260510140004 12 217 4.8 17.7 0.00 0.00 0.00 57 1012.0
20260510135506 13 258 4.8 17.7 0.00 0.00 0.00 58 1012.0
20260510135002 13 145 3.2 12.9 0.00 0.00 0.00 58 1012.0
20260510134502 13 254 1.6 11.3 0.00 0.00 0.00 60 1012.1
20260510134001 13 242 3.2 9.7 0.00 0.00 0.00 62 1012.1
20260510133501 12 306 0.0 9.7 0.00 0.00 0.00 62 1012.2
20260510133117 12 360 1.6 9.7 0.00 0.00 0.00 62 1012.2
20260510132600 13 242 1.6 8.0 0.00 0.00 0.00 62 1012.3
20260510132101 13 328 1.6 8.0 0.00 0.00 0.00 62 1012.3
20260510131605 13 165 1.6 11.3 0.00 0.00 0.00 62 1012.4
20260510131059 13 248 3.2 12.9 0.00 0.00 0.00 62 1012.4
20260510130558 13 282 4.8 12.9 0.00 0.00 0.00 60 1012.4
20260510130058 13 186 4.8 12.9 0.00 0.00 0.00 59 1012.4
20260510125557 13 209 3.2 12.9 0.00 0.00 0.00 59 1012.4
20260510125057 13 284 3.2 12.9 0.00 0.00 0.00 60 1012.5
20260510124600 13 347 3.2 12.9 0.00 0.00 0.00 61 1012.5
20260510124056 13 224 3.2 12.9 0.00 0.00 0.00 63 1012.5
20260510123556 13 220 3.2 14.5 0.00 0.00 0.00 64 1012.7
20260510123104 13 246 3.2 14.5 0.00 0.00 0.00 64 1012.7
20260510122556 12 309 3.2 12.9 0.00 0.00 0.00 66 1012.8
20260510122054 12 299 3.2 9.7 0.00 0.00 0.00 68 1012.9
20260510121553 12 250 3.2 12.9 0.00 0.00 0.00 68 1013.0
20260510121054 12 316 4.8 12.9 0.00 0.00 0.00 69 1013.1
20260510120553 12 304 1.6 8.0 0.00 0.00 0.00 70 1013.0
20260510120054 12 338 3.2 8.0 0.00 0.00 0.00 72 1013.0
20260510115555 11 55 1.6 8.0 0.00 0.00 0.00 75 1013.1
20260510115052 11 63 4.8 8.0 0.00 0.00 0.00 77 1013.2
20260510114551 11 53 1.6 6.4 0.00 0.00 0.00 78 1013.3
20260510114050 11 53 1.6 4.8 0.00 0.00 0.00 77 1013.3
20260510113551 11 53 0.0 3.2 0.00 0.00 0.00 77 1013.4
20260510113051 11 53 0.0 4.8 0.00 0.00 0.00 77 1013.5
20260510112550 11 51 1.6 8.0 0.00 0.00 0.00 76 1013.5
20260510112050 11 53 3.2 8.0 0.00 0.00 0.00 75 1013.4
20260510111548 11 37 0.0 4.8 0.00 0.00 0.00 75 1013.5
20260510111048 11 37 1.6 6.4 0.00 0.00 0.00 74 1013.5
20260510110549 12 15 1.6 6.4 0.00 0.00 0.00 73 1013.6
20260510110047 12 38 1.6 6.4 0.00 0.00 0.00 72 1013.7
20260510105548 12 32 0.0 6.4 0.00 0.00 0.00 70 1013.6
20260510105047 13 74 0.0 4.8 0.00 0.00 0.00 69 1013.6
20260510104548 13 126 0.0 4.8 0.00 0.00 0.00 68 1013.7
20260510104051 13 30 0.0 8.0 0.00 0.00 0.00 67 1013.7
20260510103547 14 24 1.6 14.5 0.00 0.00 0.00 61 1013.8
20260510103047 14 157 4.8 14.5 0.00 0.00 0.00 57 1013.7
20260510102547 15 269 3.2 9.7 0.00 0.00 0.00 54 1013.6
20260510102046 15 158 3.2 11.3 0.00 0.00 0.00 55 1013.6
20260510101545 14 344 3.2 14.5 0.00 0.00 0.00 57 1013.6
20260510101044 14 216 4.8 14.5 0.00 0.00 0.00 57 1013.8
20260510100546 14 227 1.6 8.0 0.00 0.00 0.00 57 1013.9
20260510100042 14 309 3.2 12.9 0.00 0.00 0.00 55 1014.0
20260510095542 14 298 4.8 12.9 0.00 0.00 0.00 56 1014.0
20260510095042 14 50 1.6 6.4 0.00 0.00 0.00 57 1014.0
20260510094543 14 34 3.2 6.4 0.00 0.00 0.00 56 1014.0
20260510094041 14 126 1.6 8.0 0.00 0.00 0.00 56 1014.0
20260510093540 14 246 1.6 8.0 0.00 0.00 0.00 57 1014.1
20260510093040 14 68 1.6 11.3 0.00 0.00 0.00 56 1014.1
20260510092540 13 252 4.8 11.3 0.00 0.00 0.00 56 1014.2
20260510092040 13 69 3.2 11.3 0.00 0.00 0.00 55 1014.2
20260510091539 13 153 1.6 9.7 0.00 0.00 0.00 57 1014.2
20260510091038 14 246 1.6 9.7 0.00 0.00 0.00 56 1014.3
20260510090538 14 175 1.6 8.0 0.00 0.00 0.00 56 1014.4
20260510090037 14 104 1.6 16.1 0.00 0.00 0.00 55 1014.4
20260510085540 14 261 1.6 16.1 0.00 0.00 0.00 54 1014.4
20260510085035 14 195 3.2 12.9 0.00 0.00 0.00 55 1014.3
20260510084534 13 96 3.2 12.9 0.00 0.00 0.00 57 1014.4
20260510084033 13 321 4.8 12.9 0.00 0.00 0.00 56 1014.6
20260510083532 12 255 1.6 9.7 0.00 0.00 0.00 57 1014.6
20260510083029 12 64 3.2 8.0 0.00 0.00 0.00 56 1014.7
20260510082528 12 213 1.6 8.0 0.00 0.00 0.00 58 1014.7
20260510082027 12 290 1.6 8.0 0.00 0.00 0.00 60 1014.7
20260510081532 12 113 1.6 8.0 0.00 0.00 0.00 65 1014.7
20260510081025 12 231 1.6 8.0 0.00 0.00 0.00 67 1014.8
20260510080524 11 117 1.6 4.8 0.00 0.00 0.00 68 1014.8
20260510080021 11 260 0.0 3.2 0.00 0.00 0.00 70 1014.7
20260510075520 11 95 1.6 3.2 0.00 0.00 0.00 71 1014.7
20260510075019 11 95 0.0 4.8 0.00 0.00 0.00 74 1014.7
20260510074521 10 96 1.6 4.8 0.00 0.00 0.00 76 1014.6
20260510074019 10 76 0.0 4.8 0.00 0.00 0.00 77 1014.6
20260510073515 10 64 1.6 4.8 0.00 0.00 0.00 79 1014.7
20260510073014 10 59 1.6 4.8 0.00 0.00 0.00 81 1014.7
20260510072513 10 274 0.0 4.8 0.00 0.00 0.00 82 1014.7
20260510072015 10 254 0.0 0.0 0.00 0.00 0.00 83 1014.7
20260510071511 9 254 0.0 0.0 0.00 0.00 0.00 85 1014.7
20260510071009 9 244 0.0 0.0 0.00 0.00 0.00 85 1014.8
20260510070506 8 244 0.0 0.0 0.00 0.00 0.00 85 1014.8
20260510070005 8 244 0.0 3.2 0.00 0.00 0.00 86 1014.9
20260510065503 8 244 0.0 3.2 0.00 0.00 0.00 86 1014.9
20260510065004 8 236 0.0 3.2 0.00 0.00 0.00 86 1014.9
20260510064502 8 279 0.0 4.8 0.00 0.00 0.00 87 1015.0
20260510064001 8 279 1.6 4.8 0.00 0.00 0.00 88 1015.0
20260510063600 8 68 0.0 4.8 0.00 0.00 0.00 89 1015.0
20260510063103 8 322 0.0 4.8 0.00 0.00 0.00 89 1014.9
20260510062602 7 347 0.0 4.8 0.00 0.00 0.00 91 1015.0
20260510062056 7 233 0.0 6.4 0.00 0.00 0.00 92 1014.9
20260510061556 7 267 1.6 6.4 0.00 0.00 0.00 92 1014.9
20260510061054 7 275 0.0 6.4 0.00 0.00 0.00 92 1014.9
20260510060553 6 284 3.2 6.4 0.00 0.00 0.00 92 1015.0
20260510060052 6 298 1.6 8.0 0.00 0.00 0.00 93 1015.0
20260510055552 6 205 3.2 8.0 0.00 0.00 0.00 93 1015.0
20260510055049 6 216 0.0 6.4 0.00 0.00 0.00 93 1015.1
20260510054548 6 284 1.6 8.0 0.00 0.00 0.00 93 1015.1
20260510054046 6 264 1.6 8.0 0.00 0.00 0.00 94 1015.1
20260510053546 6 279 0.0 4.8 0.00 0.00 0.00 94 1015.2
20260510053046 5 302 1.6 4.8 0.00 0.00 0.00 94 1015.2
20260510052545 5 67 0.0 1.6 0.00 0.00 0.00 93 1015.3
20260510052045 5 67 0.0 0.0 0.00 0.00 0.00 93 1015.3
20260510051545 5 67 0.0 0.0 0.00 0.00 0.00 94 1015.2
20260510051043 5 67 0.0 0.0 0.00 0.00 0.00 93 1015.3
20260510050541 5 67 0.0 0.0 0.00 0.00 0.00 93 1015.2
20260510050043 5 67 0.0 1.6 0.00 0.00 0.00 93 1015.3
20260510045541 4 67 0.0 1.6 0.00 0.00 0.00 93 1015.3
20260510045042 4 67 0.0 1.6 0.00 0.00 0.00 94 1015.4
20260510044547 4 67 0.0 0.0 0.00 0.00 0.00 94 1015.4
20260510044039 3 67 0.0 0.0 0.00 0.00 0.00 94 1015.4
20260510043538 3 67 0.0 0.0 0.00 0.00 0.00 93 1015.5
20260510043038 3 67 0.0 1.6 0.00 0.00 0.00 94 1015.5
20260510042537 3 67 0.0 0.0 0.00 0.00 0.00 93 1015.5
20260510042035 3 67 0.0 0.0 0.00 0.00 0.00 93 1015.7
20260510041535 3 67 0.0 0.0 0.00 0.00 0.00 93 1015.7
20260510041034 3 67 0.0 0.0 0.00 0.00 0.00 93 1015.8
20260510040533 2 67 0.0 1.6 0.00 0.00 0.00 93 1015.8
20260510040032 2 67 0.0 1.6 0.00 0.00 0.00 93 1015.9
20260510035530 2 67 0.0 0.0 0.00 0.00 0.00 93 1016.0
20260510035030 2 67 0.0 0.0 0.00 0.00 0.00 93 1016.1
20260510034535 2 67 0.0 0.0 0.00 0.00 0.00 93 1016.1
20260510034032 2 67 0.0 3.2 0.00 0.00 0.00 93 1016.0
20260510033529 2 67 0.0 3.2 0.00 0.00 0.00 93 1016.1
20260510033031 2 67 0.0 3.2 0.00 0.00 0.00 93 1016.1
20260510032532 2 67 0.0 0.0 0.00 0.00 0.00 93 1016.1
20260510032030 1 67 0.0 0.0 0.00 0.00 0.00 93 1016.2
20260510031532 1 67 0.0 0.0 0.00 0.00 0.00 92 1016.2
20260510031026 1 67 0.0 0.0 0.00 0.00 0.00 92 1016.3
20260510030525 1 67 0.0 0.0 0.00 0.00 0.00 92 1016.4
20260510030025 1 67 0.0 0.0 0.00 0.00 0.00 92 1016.4
20260510025525 1 67 0.0 0.0 0.00 0.00 0.00 91 1016.4
20260510025024 1 67 0.0 0.0 0.00 0.00 0.00 91 1016.5
20260510024523 1 67 0.0 0.0 0.00 0.00 0.00 92 1016.5
20260510024023 1 67 0.0 0.0 0.00 0.00 0.00 91 1016.5
20260510023522 1 67 0.0 0.0 0.00 0.00 0.00 91 1016.6
20260510023022 1 67 0.0 0.0 0.00 0.00 0.00 91 1016.7
20260510022521 1 67 0.0 0.0 0.00 0.00 0.00 91 1016.8
20260510022021 1 67 0.0 0.0 0.00 0.00 0.00 91 1016.8
20260510021532 1 67 0.0 0.0 0.00 0.00 0.00 91 1016.8
20260510021020 1 67 0.0 0.0 0.00 0.00 0.00 91 1016.9
20260510020518 1 67 0.0 0.0 0.00 0.00 0.00 91 1017.0
20260510020018 1 67 0.0 0.0 0.00 0.00 0.00 91 1017.0
20260510015517 1 67 0.0 0.0 0.00 0.00 0.00 91 1017.1
20260510015021 1 67 0.0 0.0 0.00 0.00 0.00 91 1017.1
20260510014517 1 67 0.0 0.0 0.00 0.00 0.00 91 1017.1
20260510014015 1 67 0.0 0.0 0.00 0.00 0.00 90 1017.1
20260510013515 1 67 0.0 0.0 0.00 0.00 0.00 90 1017.2
20260510013013 1 67 0.0 0.0 0.00 0.00 0.00 91 1017.2
20260510012514 2 67 0.0 0.0 0.00 0.00 0.00 91 1017.2
20260510012012 2 67 0.0 0.0 0.00 0.00 0.00 91 1017.2
20260510011512 2 67 0.0 0.0 0.00 0.00 0.00 91 1017.3
20260510011011 2 67 0.0 0.0 0.00 0.00 0.00 90 1017.3
20260510010509 2 67 0.0 0.0 0.00 0.00 0.00 90 1017.4
20260510010009 2 67 0.0 0.0 0.00 0.00 0.00 90 1017.4
20260510005508 2 67 0.0 0.0 0.00 0.00 0.00 90 1017.4
20260510005007 2 67 0.0 0.0 0.00 0.00 0.00 91 1017.5
20260510004506 2 67 0.0 0.0 0.00 0.00 0.00 90 1017.5
20260510004009 2 67 0.0 0.0 0.00 0.00 0.00 90 1017.6
20260510003505 2 67 0.0 0.0 0.00 0.00 0.00 90 1017.7
20260510003005 2 67 0.0 0.0 0.00 0.00 0.00 90 1017.8
20260510002503 2 67 0.0 0.0 0.00 0.00 0.00 90 1017.9
20260510002003 2 67 0.0 1.6 0.00 0.00 0.00 90 1017.9
20260510001503 2 67 0.0 1.6 0.00 0.00 0.00 89 1018.0
20260510001002 2 67 0.0 3.2 0.00 0.00 0.00 89 1018.0
20260510000501 2 67 1.6 3.2 0.00 0.00 0.00 89 1018.1
20260510000100 2 67 0.0 0.0 0.00 0.00 0.00 88 1018.2
20260509235558 3 67 0.0 0.0 0.00 0.00 0.00 88 1018.2
20260509235059 3 67 0.0 0.0 0.00 0.00 0.00 88 1018.2
20260509234600 3 67 0.0 0.0 0.00 0.00 0.00 87 1018.3
20260509234055 3 67 0.0 0.0 0.00 0.00 0.00 87 1018.5
20260509233558 3 67 0.0 0.0 0.00 0.00 0.00 87 1018.5
20260509233055 3 67 0.0 0.0 0.00 0.00 0.00 87 1018.5
20260509232552 3 67 0.0 0.0 0.00 0.00 0.00 87 1018.6
20260509232051 4 67 0.0 0.0 0.00 0.00 0.00 86 1018.6
20260509231551 4 67 0.0 0.0 0.00 0.00 0.00 86 1018.6
20260509231049 5 67 0.0 0.0 0.00 0.00 0.00 86 1018.6
20260509230550 5 67 0.0 0.0 0.00 0.00 0.00 87 1018.7
20260509230046 5 67 0.0 0.0 0.00 0.00 0.00 87 1018.8
20260509225544 5 67 0.0 0.0 0.00 0.00 0.00 88 1018.8
20260509225047 5 67 0.0 0.0 0.00 0.00 0.00 88 1019.0
20260509224554 5 67 0.0 0.0 0.00 0.00 0.00 88 1019.0
20260509224043 5 67 0.0 0.0 0.00 0.00 0.00 87 1019.1
20260509223544 6 67 0.0 0.0 0.00 0.00 0.00 86 1019.2
20260509223042 6 67 0.0 0.0 0.00 0.00 0.00 87 1019.1
20260509222541 6 67 0.0 0.0 0.00 0.00 0.00 88 1019.2
20260509222040 6 67 0.0 0.0 0.00 0.00 0.00 88 1019.2
20260509221556 6 67 0.0 0.0 0.00 0.00 0.00 88 1019.3
20260509221039 6 67 0.0 0.0 0.00 0.00 0.00 87 1019.3
20260509220537 6 67 0.0 0.0 0.00 0.00 0.00 87 1019.3
20260509220037 6 67 0.0 1.6 0.00 0.00 0.00 87 1019.4
20260509215536 5 67 0.0 1.6 0.00 0.00 0.00 86 1019.5
20260509215036 5 67 0.0 1.6 0.00 0.00 0.00 85 1019.5
20260509214534 5 67 0.0 1.6 0.00 0.00 0.00 85 1019.6
20260509214037 5 67 0.0 1.6 0.00 0.00 0.00 85 1019.6
20260509213534 5 67 0.0 1.6 0.00 0.00 0.00 84 1019.6
20260509213034 5 67 0.0 1.6 0.00 0.00 0.00 82 1019.7
20260509212533 5 67 0.0 1.6 0.00 0.00 0.00 81 1019.6
20260509212033 5 67 0.0 1.6 0.00 0.00 0.00 81 1019.6
20260509211533 5 67 0.0 1.6 0.00 0.00 0.00 81 1019.6
20260509211033 6 67 0.0 1.6 0.00 0.00 0.00 80 1019.7
20260509210535 6 67 0.0 0.0 0.00 0.00 0.00 80 1019.7
20260509210033 6 67 0.0 0.0 0.00 0.00 0.00 79 1019.8
20260509205531 6 67 0.0 0.0 0.00 0.00 0.00 79 1019.8
20260509205031 6 67 0.0 0.0 0.00 0.00 0.00 77 1019.8
20260509204531 6 67 0.0 0.0 0.00 0.00 0.00 77 1019.9
20260509204031 6 67 0.0 0.0 0.00 0.00 0.00 76 1019.8
20260509203530 6 67 0.0 0.0 0.00 0.00 0.00 76 1019.9
20260509203031 6 67 0.0 0.0 0.00 0.00 0.00 75 1019.9
20260509202531 6 67 0.0 0.0 0.00 0.00 0.00 75 1020.0
20260509202033 6 67 0.0 0.0 0.00 0.00 0.00 75 1020.0
20260509201534 7 67 0.0 0.0 0.00 0.00 0.00 74 1020.0
20260509201033 7 67 0.0 1.6 0.00 0.00 0.00 73 1020.0
20260509200530 7 67 0.0 1.6 0.00 0.00 0.00 73 1020.0
20260509200030 7 67 0.0 0.0 0.00 0.00 0.00 72 1020.1
20260509195530 7 67 0.0 0.0 0.00 0.00 0.00 72 1020.0
20260509195031 8 67 0.0 0.0 0.00 0.00 0.00 71 1020.0
20260509194529 8 67 0.0 0.0 0.00 0.00 0.00 71 1020.0
20260509194029 8 67 0.0 0.0 0.00 0.00 0.00 70 1020.0
20260509193532 8 67 0.0 0.0 0.00 0.00 0.00 69 1020.0
20260509193030 8 67 0.0 0.0 0.00 0.00 0.00 68 1020.0
20260509192530 8 67 0.0 0.0 0.00 0.00 0.00 68 1020.0
20260509192029 9 67 0.0 0.0 0.00 0.00 0.00 67 1019.9
20260509191529 9 67 0.0 0.0 0.00 0.00 0.00 66 1020.0
20260509191028 10 67 0.0 0.0 0.00 0.00 0.00 65 1020.0
20260509190528 10 67 0.0 0.0 0.00 0.00 0.00 65 1019.9
20260509190029 10 67 0.0 0.0 0.00 0.00 0.00 64 1019.9
20260509185528 10 67 0.0 1.6 0.00 0.00 0.00 62 1019.9
20260509185028 10 67 0.0 3.2 0.00 0.00 0.00 62 1019.9
20260509184527 11 67 0.0 0.0 0.00 0.00 0.00 61 1020.0
20260509184027 11 67 0.0 0.0 0.00 0.00 0.00 60 1019.9
20260509183527 11 67 0.0 0.0 0.00 0.00 0.00 59 1019.9
20260509183027 11 67 0.0 0.0 0.00 0.00 0.00 58 1019.9
20260509182526 11 67 0.0 0.0 0.00 0.00 0.00 57 1019.9
20260509182027 11 67 0.0 1.6 0.00 0.00 0.00 56 1019.9
20260509181527 12 67 0.0 1.6 0.00 0.00 0.00 55 1019.9
20260509181027 12 67 0.0 3.2 0.00 0.00 0.00 54 1019.9
20260509180526 12 67 0.0 1.6 0.00 0.00 0.00 52 1019.9
20260509180026 12 67 0.0 1.6 0.00 0.00 0.00 52 1019.9
20260509175526 12 67 0.0 1.6 0.00 0.00 0.00 51 1019.9
20260509175026 12 67 0.0 3.2 0.00 0.00 0.00 52 1019.9
20260509174525 13 67 1.6 3.2 0.00 0.00 0.00 52 1019.9
20260509174025 13 87 0.0 3.2 0.00 0.00 0.00 52 1019.9
20260509173524 13 87 0.0 4.8 0.00 0.00 0.00 51 1020.0
20260509173024 13 67 0.0 6.4 0.00 0.00 0.00 50 1019.9
20260509172524 13 71 1.6 4.8 0.00 0.00 0.00 49 1019.9
20260509172023 13 251 0.0 6.4 0.00 0.00 0.00 50 1020.0
20260509171534 13 49 1.6 6.4 0.00 0.00 0.00 49 1020.1
20260509171022 14 131 0.0 4.8 0.00 0.00 0.00 47 1020.1
20260509170526 14 179 0.0 4.8 0.00 0.00 0.00 48 1020.2
20260509170028 14 93 0.0 4.8 0.00 0.00 0.00 48 1020.1
20260509165521 14 74 1.6 6.4 0.00 0.00 0.00 47 1020.2
20260509165022 14 63 0.0 4.8 0.00 0.00 0.00 47 1020.2
20260509164521 14 93 1.6 4.8 0.00 0.00 0.00 47 1020.2
20260509164022 14 196 0.0 8.0 0.00 0.00 0.00 47 1020.3
20260509163519 14 217 0.0 6.4 0.00 0.00 0.00 45 1020.4
20260509163024 14 207 1.6 6.4 0.00 0.00 0.00 45 1020.4
20260509162518 14 103 1.6 6.4 0.00 0.00 0.00 44 1020.4
20260509162018 14 59 1.6 6.4 0.00 0.00 0.00 44 1020.5
20260509161517 14 26 1.6 9.7 0.00 0.00 0.00 44 1020.5
20260509161017 14 44 1.6 9.7 0.00 0.00 0.00 44 1020.6
20260509160516 14 107 1.6 6.4 0.00 0.00 0.00 44 1020.7
20260509160018 14 67 1.6 8.0 0.00 0.00 0.00 45 1020.7
20260509155515 15 63 0.0 8.0 0.00 0.00 0.00 45 1020.8
20260509155015 14 142 1.6 6.4 0.00 0.00 0.00 44 1020.8
20260509154518 14 123 1.6 6.4 0.00 0.00 0.00 43 1020.8
20260509154014 14 105 0.0 6.4 0.00 0.00 0.00 46 1020.9
20260509153515 14 175 1.6 6.4 0.00 0.00 0.00 45 1021.0
20260509153013 14 70 3.2 9.7 0.00 0.00 0.00 45 1021.0
20260509152512 15 32 3.2 8.0 0.00 0.00 0.00 46 1021.1
20260509152011 15 125 1.6 6.4 0.00 0.00 0.00 46 1021.2
20260509151509 15 148 1.6 6.4 0.00 0.00 0.00 48 1021.3
20260509151009 14 91 1.6 8.0 0.00 0.00 0.00 48 1021.3
20260509150509 14 92 4.8 9.7 0.00 0.00 0.00 45 1021.4
20260509150016 15 169 3.2 8.0 0.00 0.00 0.00 47 1021.5
20260509145511 15 79 1.6 9.7 0.00 0.00 0.00 48 1021.5
20260509145008 15 67 1.6 9.7 0.00 0.00 0.00 46 1021.6
20260509144506 15 63 3.2 9.7 0.00 0.00 0.00 45 1021.6
20260509144009 15 74 0.0 9.7 0.00 0.00 0.00 46 1021.6
20260509143506 15 109 1.6 6.4 0.00 0.00 0.00 46 1021.7